Total_Precipitation_Accumulation
0.49 0.49 0.51 0.47 0.46 0.48 0.54 0.69 0.90 0.74 0.36 0.25 0.30 0.31 0.32 0.36 0.41 0.43 0.41 0.45 0.54 0.59 0.65 0.71 0.79 0.87 1.00 1.25 1.76 2.45 3.02 3.40 3.35 3.03 2.74 2.70 2.99 3.38
0.59 0.59 0.57 0.56 0.57 0.56 0.58 0.62 0.77 0.94 0.69 0.29 0.31 0.37 0.41 0.42 0.46 0.46 0.45 0.51 0.54 0.61 0.67 0.70 0.76 0.83 0.94 1.10 1.30 1.76 2.40 2.90 3.27 3.42 3.34 3.20 3.21 3.46
0.66 0.68 0.68 0.68 0.70 0.69 0.70 0.71 0.76 0.92 0.94 0.42 0.28 0.35 0.47 0.51 0.51 0.48 0.46 0.47 0.47 0.55 0.65 0.69 0.75 0.81 0.86 0.98 1.14 1.39 1.88 2.38 2.82 3.29 3.61 3.61 3.48 3.43
0.70 0.74 0.76 0.76 0.79 0.80 0.83 0.82 0.80 0.84 0.96 0.69 0.39 0.38 0.46 0.52 0.57 0.56 0.49 0.46 0.45 0.50 0.61 0.70 0.74 0.79 0.82 0.89 1.00 1.18 1.47 1.95 2.33 2.66 3.11 3.36 3.40 3.52
0.65 0.72 0.76 0.83 0.87 0.85 0.87 0.87 0.82 0.76 0.79 0.79 0.54 0.43 0.47 0.52 0.57 0.61 0.59 0.56 0.51 0.50 0.54 0.65 0.74 0.79 0.85 0.90 0.96 1.03 1.13 1.36 1.78 2.26 2.73 3.11 3.18 3.19
0.63 0.68 0.75 0.86 0.95 1.01 1.07 0.98 0.90 0.94 0.94 0.93 0.76 0.60 0.56 0.57 0.70 0.74 0.71 0.65 0.62 0.55 0.55 0.57 0.67 0.76 0.79 0.79 0.81 0.88 0.98 1.20 1.54 1.97 2.34 2.74 2.98 2.97
0.68 0.68 0.72 0.88 1.09 1.29 1.41 1.34 1.28 1.31 1.25 1.22 1.07 0.87 0.74 0.75 0.81 0.79 0.83 0.73 0.71 0.68 0.63 0.54 0.53 0.54 0.59 0.68 0.74 0.78 0.87 1.01 1.20 1.52 1.95 2.32 2.67 2.91
0.75 0.69 0.66 0.75 0.86 1.04 1.26 1.33 1.42 1.52 1.56 1.50 1.38 1.19 0.91 0.81 0.85 0.99 1.10 1.11 0.97 0.69 0.65 0.61 0.59 0.62 0.57 0.58 0.67 0.71 0.76 0.87 1.05 1.26 1.53 1.85 2.18 2.60
0.67 0.62 0.62 0.60 0.66 0.64 0.76 0.86 0.96 1.14 1.37 1.53 1.60 1.31 1.04 0.92 1.07 1.28 1.32 1.29 1.07 0.86 0.89 0.93 0.75 0.71 0.64 0.67 0.76 0.72 0.78 0.88 0.98 1.10 1.30 1.56 1.81 2.13
0.59 0.61 0.62 0.60 0.59 0.66 0.73 0.76 0.72 0.75 0.97 1.21 1.36 1.22 1.12 1.12 1.30 1.55 1.69 1.75 1.43 1.09 1.07 1.25 0.96 0.80 0.71 0.69 0.78 0.77 0.78 0.84 0.94 1.05 1.17 1.32 1.54 1.81
0.59 0.71 0.76 0.68 0.71 0.85 0.96 0.94 0.77 0.67 0.74 1.02 1.27 1.31 1.35 1.53 1.74 2.07 2.34 2.41 2.11 1.51 1.26 1.38 1.20 0.99 0.88 0.80 0.82 0.89 0.88 0.86 0.89 1.00 1.13 1.23 1.36 1.59
0.62 0.74 0.98 0.95 0.93 0.98 1.03 1.04 0.99 0.76 0.68 0.73 0.81 0.91 0.96 1.04 1.38 1.73 1.97 2.19 2.16 1.92 1.47 1.42 1.40 1.34 1.36 1.02 0.82 0.76 0.80 0.92 0.96 0.99 1.09 1.19 1.31 1.36
0.73 0.80 0.94 1.00 0.99 1.00 1.05 1.03 1.06 1.00 0.96 0.93 0.87 0.82 0.84 0.95 1.11 1.36 1.60 1.84 2.04 1.93 1.53 1.59 1.71 1.60 1.54 1.25 0.94 0.82 0.73 0.72 0.77 0.90 1.04 1.18 1.32 1.39
0.80 0.74 0.82 0.93 0.97 1.00 0.97 0.99 1.05 1.07 1.02 0.98 0.89 0.82 0.81 0.86 0.94 1.09 1.34 1.50 1.62 1.66 1.51 1.64 1.90 1.74 1.63 1.36 1.05 0.95 0.87 0.80 0.74 0.75 0.84 1.13 1.31 1.41
0.87 1.01 0.97 0.93 0.89 0.84 0.83 0.89 0.90 0.86 0.89 0.87 0.76 0.66 0.63 0.69 0.80 0.96 1.14 1.32 1.44 1.47 1.49 1.50 1.62 1.67 1.74 1.58 1.12 0.95 1.00 1.00 0.89 0.82 0.84 0.92 1.05 1.19
0.86 0.95 0.95 0.84 0.74 0.69 0.71 0.73 0.73 0.77 0.84 0.84 0.73 0.63 0.59 0.64 0.76 0.88 1.05 1.20 1.41 1.43 1.38 1.41 1.48 1.71 1.88 1.57 1.30 1.09 0.99 1.11 1.05 0.93 0.89 0.89 0.93 0.97
1.04 1.04 0.95 0.81 0.73 0.64 0.61 0.58 0.59 0.68 0.78 0.77 0.76 0.76 0.72 0.73 0.75 0.80 0.98 1.13 1.31 1.29 1.29 1.40 1.52 1.67 1.83 1.81 1.70 1.33 1.10 1.06 1.07 1.06 1.02 1.03 1.02 0.99
1.04 0.99 0.83 0.72 0.66 0.62 0.61 0.60 0.57 0.59 0.62 0.68 0.73 0.76 0.78 0.79 0.78 0.79 0.93 1.08 1.15 1.12 1.17 1.29 1.57 1.93 2.17 2.15 1.83 1.51 1.25 1.16 1.21 1.27 1.17 1.11 1.08 0.99
0.86 0.75 0.67 0.65 0.62 0.59 0.58 0.58 0.56 0.53 0.58 0.67 0.73 0.75 0.78 0.80 0.80 0.80 0.84 0.94 1.01 1.03 1.10 1.22 1.49 1.89 2.09 1.98 1.86 1.59 1.36 1.22 1.30 1.48 1.40 1.14 1.01 0.92
0.65 0.64 0.62 0.60 0.58 0.57 0.57 0.57 0.56 0.55 0.59 0.64 0.65 0.66 0.71 0.78 0.78 0.73 0.75 0.86 0.94 1.01 1.10 1.22 1.42 1.65 1.84 1.63 1.56 1.62 1.51 1.38 1.38 1.54 1.49 1.24 1.11 1.15
0.58 0.58 0.57 0.59 0.59 0.56 0.54 0.54 0.55 0.56 0.55 0.57 0.57 0.58 0.61 0.72 0.73 0.65 0.68 0.79 0.98 1.09 1.12 1.13 1.25 1.48 1.73 1.83 1.81 1.69 1.67 1.63 1.49 1.51 1.48 1.43 1.38 1.36
0.57 0.59 0.56 0.56 0.60 0.59 0.58 0.56 0.57 0.55 0.53 0.54 0.54 0.55 0.59 0.67 0.70 0.66 0.70 0.80 0.89 0.96 1.01 1.06 1.20 1.53 1.94 2.06 1.88 1.67 1.67 1.76 1.84 1.76 1.63 1.47 1.47 1.44
0.62 0.60 0.55 0.52 0.55 0.58 0.60 0.59 0.57 0.54 0.52 0.56 0.58 0.58 0.61 0.67 0.67 0.70 0.74 0.79 0.86 0.91 0.98 1.12 1.30 1.56 1.80 1.81 1.78 1.69 1.58 1.59 1.70 1.82 1.99 1.73 1.33 1.11